contact:dominique.lefevre@mio.osupytheas.fr, maurice.libes@osupytheas.fr, didier.mallarino@osupytheas.fr
Project:EMSO http://www.emso-fr.org/EMSO-France
Depth: 2436.0 m
Title:EMSO Ligure Ouest : Data MII capteur CSTAR
DateTime,Latitude,Longitude,Instrument_Serial,Reference_Counts,Signal_Counts,Corrected_Signal_raw_counts,Calculated_Beam_c_inverse_meters,Internal_thermistor_counts
DateTime,Latitude,Longitude,Instrument_Serial,Reference_Counts,Signal_Counts,Corrected_Signal_raw_counts,Calculated_Beam_c_inverse_meters,Internal_thermistor_counts
2022-07-12T00:01:12,42.805,6.029,CST-1368DR,4664,5154,11772,01.130,551
2022-07-12T00:04:14,42.805,6.029,CST-1368DR,4664,5154,11772,01.130,551
2022-07-12T00:07:15,42.805,6.029,CST-1368DR,4664,5161,11789,01.125,551
2022-07-12T00:10:17,42.805,6.029,CST-1368DR,4664,5154,11773,01.130,551
2022-07-12T00:13:18,42.805,6.029,CST-1368DR,4664,5157,11779,01.128,551
2022-07-12T00:16:20,42.805,6.029,CST-1368DR,4664,5156,11777,01.129,551
2022-07-12T00:19:22,42.805,6.029,CST-1368DR,4663,5145,11754,01.136,551
2022-07-12T00:22:23,42.805,6.029,CST-1368DR,4664,5164,11796,01.122,551
2022-07-12T00:25:25,42.805,6.029,CST-1368DR,4664,5160,11787,01.125,551
2022-07-12T00:28:26,42.805,6.029,CST-1368DR,4664,5165,11799,01.121,551
2022-07-12T00:31:28,42.805,6.029,CST-1368DR,4664,5152,11768,01.132,551
2022-07-12T00:34:30,42.805,6.029,CST-1368DR,4664,5162,11791,01.124,551
2022-07-12T00:37:31,42.805,6.029,CST-1368DR,4664,5149,11762,01.134,551
2022-07-12T00:40:33,42.805,6.029,CST-1368DR,4664,5158,11782,01.127,551
2022-07-12T00:43:34,42.805,6.029,CST-1368DR,4663,5145,11755,01.136,551
2022-07-12T00:46:36,42.805,6.029,CST-1368DR,4664,5148,11759,01.135,551
2022-07-12T00:49:37,42.805,6.029,CST-1368DR,4664,5139,11738,01.142,551
2022-07-12T00:52:39,42.805,6.029,CST-1368DR,4664,5146,11754,01.136,551
2022-07-12T00:55:41,42.805,6.029,CST-1368DR,4663,5142,11747,01.139,551
2022-07-12T00:58:42,42.805,6.029,CST-1368DR,4664,5146,11754,01.136,551
2022-07-12T01:01:44,42.805,6.029,CST-1368DR,4663,5140,11743,01.140,551
2022-07-12T01:04:45,42.805,6.029,CST-1368DR,4664,5149,11762,01.134,551
2022-07-12T01:07:47,42.805,6.029,CST-1368DR,4664,5150,11763,01.133,551
2022-07-12T01:10:48,42.805,6.029,CST-1368DR,4664,5151,11766,01.132,551
2022-07-12T01:13:50,42.805,6.029,CST-1368DR,4663,5151,11769,01.131,551
2022-07-12T01:16:52,42.805,6.029,CST-1368DR,4663,5145,11754,01.136,550
2022-07-12T01:19:53,42.805,6.029,CST-1368DR,4663,5145,11755,01.136,551
2022-07-12T01:22:55,42.805,6.029,CST-1368DR,4663,5145,11755,01.136,551
2022-07-12T01:25:56,42.805,6.029,CST-1368DR,4664,5151,11765,01.133,551
2022-07-12T01:28:58,42.805,6.029,CST-1368DR,4663,5145,11755,01.136,551
2022-07-12T01:32:00,42.805,6.029,CST-1368DR,4663,5145,11754,01.136,551
2022-07-12T01:35:01,42.805,6.029,CST-1368DR,4663,5142,11747,01.139,551
2022-07-12T01:38:03,42.805,6.029,CST-1368DR,4663,5143,11749,01.138,551
2022-07-12T01:41:04,42.805,6.029,CST-1368DR,4663,5143,11751,01.137,551
2022-07-12T01:44:06,42.805,6.029,CST-1368DR,4664,5151,11766,01.132,551
2022-07-12T01:47:07,42.805,6.029,CST-1368DR,4664,5150,11764,01.133,551
2022-07-12T01:50:09,42.805,6.029,CST-1368DR,4663,5145,11754,01.136,551
2022-07-12T01:53:11,42.805,6.029,CST-1368DR,4663,5149,11764,01.133,551
2022-07-12T01:56:12,42.805,6.029,CST-1368DR,4663,5147,11759,01.135,551
2022-07-12T01:59:14,42.805,6.029,CST-1368DR,4663,5143,11751,01.137,551
2022-07-12T02:02:15,42.805,6.029,CST-1368DR,4663,5142,11749,01.138,551
2022-07-12T02:05:17,42.805,6.029,CST-1368DR,4664,5152,11769,01.131,551
2022-07-12T02:08:19,42.805,6.029,CST-1368DR,4663,5141,11746,01.139,551
2022-07-12T02:11:20,42.805,6.029,CST-1368DR,4663,5146,11756,01.136,551
2022-07-12T02:14:22,42.805,6.029,CST-1368DR,4663,5143,11751,01.137,551
2022-07-12T02:17:23,42.805,6.029,CST-1368DR,4663,5142,11749,01.138,551
2022-07-12T02:20:25,42.805,6.029,CST-1368DR,4663,5139,11741,01.141,551
2022-07-12T02:23:26,42.805,6.029,CST-1368DR,4663,5141,11746,01.139,551
2022-07-12T02:26:28,42.805,6.029,CST-1368DR,4663,5134,11730,01.145,551
2022-07-12T02:29:30,42.805,6.029,CST-1368DR,4663,5130,11721,01.148,551
2022-07-12T02:32:31,42.805,6.029,CST-1368DR,4663,5166,11802,01.120,551
2022-07-12T02:35:33,42.805,6.029,CST-1368DR,4663,5135,11731,01.144,551
2022-07-12T02:38:34,42.805,6.029,CST-1368DR,4663,5147,11758,01.135,551
2022-07-12T02:41:36,42.805,6.029,CST-1368DR,4663,5148,11762,01.134,551
2022-07-12T02:44:37,42.805,6.029,CST-1368DR,4663,5148,11762,01.134,551
2022-07-12T02:47:39,42.805,6.029,CST-1368DR,4663,5137,11736,01.143,551
2022-07-12T02:50:41,42.805,6.029,CST-1368DR,4663,5136,11733,01.144,551
2022-07-12T02:53:42,42.805,6.029,CST-1368DR,4663,5148,11761,01.134,551
2022-07-12T02:56:44,42.805,6.029,CST-1368DR,4663,5136,11734,01.143,551
2022-07-12T02:59:45,42.805,6.029,CST-1368DR,4663,5133,11728,01.145,551
2022-07-12T03:02:47,42.805,6.029,CST-1368DR,4663,5134,11730,01.145,551
2022-07-12T03:05:49,42.805,6.029,CST-1368DR,4663,5135,11733,01.144,551
2022-07-12T03:08:50,42.805,6.029,CST-1368DR,4663,5134,11730,01.145,551
2022-07-12T03:11:52,42.805,6.029,CST-1368DR,4663,5137,11737,01.142,551
2022-07-12T03:14:53,42.805,6.029,CST-1368DR,4663,5132,11726,01.146,551
2022-07-12T03:17:55,42.805,6.029,CST-1368DR,4663,5131,11723,01.147,551
2022-07-12T03:20:56,42.805,6.029,CST-1368DR,4663,5129,11718,01.149,551
2022-07-12T03:23:58,42.805,6.029,CST-1368DR,4663,5139,11741,01.141,551
2022-07-12T03:27:00,42.805,6.029,CST-1368DR,4663,5135,11731,01.144,551
2022-07-12T03:30:01,42.805,6.029,CST-1368DR,4663,5135,11731,01.144,551
2022-07-12T03:33:03,42.805,6.029,CST-1368DR,4663,5137,11735,01.143,551
2022-07-12T03:36:04,42.805,6.029,CST-1368DR,4663,5131,11723,01.147,551
2022-07-12T03:39:06,42.805,6.029,CST-1368DR,4663,5136,11734,01.143,551
2022-07-12T03:42:07,42.805,6.029,CST-1368DR,4663,5135,11733,01.144,551
2022-07-12T03:45:09,42.805,6.029,CST-1368DR,4663,5140,11743,01.140,551
2022-07-12T03:48:11,42.805,6.029,CST-1368DR,4663,5140,11743,01.140,551
2022-07-12T03:51:12,42.805,6.029,CST-1368DR,4663,5132,11724,01.147,551
2022-07-12T03:54:14,42.805,6.029,CST-1368DR,4663,5134,11730,01.145,551
2022-07-12T03:57:15,42.805,6.029,CST-1368DR,4663,5134,11729,01.145,551
2022-07-12T04:00:17,42.805,6.029,CST-1368DR,4663,5134,11729,01.145,551
2022-07-12T04:03:19,42.805,6.029,CST-1368DR,4663,5139,11741,01.141,551
2022-07-12T04:06:20,42.805,6.029,CST-1368DR,4663,5139,11741,01.141,551
2022-07-12T04:09:22,42.805,6.029,CST-1368DR,4663,5139,11741,01.141,551
2022-07-12T04:12:23,42.805,6.029,CST-1368DR,4663,5143,11749,01.138,551
2022-07-12T04:15:25,42.805,6.029,CST-1368DR,4663,5144,11753,01.137,551
2022-07-12T04:18:26,42.805,6.029,CST-1368DR,4663,5144,11752,01.137,551
2022-07-12T04:21:28,42.805,6.029,CST-1368DR,4663,5145,11755,01.136,551
2022-07-12T04:24:30,42.805,6.029,CST-1368DR,4663,5146,11756,01.136,551
2022-07-12T04:27:31,42.805,6.029,CST-1368DR,4663,5145,11754,01.136,551
2022-07-12T04:30:33,42.805,6.029,CST-1368DR,4663,5145,11755,01.136,551
2022-07-12T04:33:34,42.805,6.029,CST-1368DR,4663,5145,11755,01.136,551
2022-07-12T04:36:36,42.805,6.029,CST-1368DR,4663,5149,11763,01.133,551
2022-07-12T04:39:37,42.805,6.029,CST-1368DR,4663,5148,11761,01.134,551
2022-07-12T04:42:39,42.805,6.029,CST-1368DR,4663,5149,11763,01.133,551
2022-07-12T04:45:41,42.805,6.029,CST-1368DR,4663,5147,11758,01.135,551
2022-07-12T04:48:42,42.805,6.029,CST-1368DR,4663,5150,11766,01.132,551
2022-07-12T04:51:44,42.805,6.029,CST-1368DR,4663,5148,11762,01.134,551
2022-07-12T04:54:45,42.805,6.029,CST-1368DR,4663,5147,11759,01.135,551
2022-07-12T04:57:47,42.805,6.029,CST-1368DR,4663,5143,11750,01.138,551
2022-07-12T05:00:49,42.805,6.029,CST-1368DR,4663,5145,11754,01.136,551
2022-07-12T05:03:50,42.805,6.029,CST-1368DR,4663,5145,11755,01.136,551
2022-07-12T05:06:52,42.805,6.029,CST-1368DR,4663,5149,11764,01.133,551
2022-07-12T05:09:53,42.805,6.029,CST-1368DR,4663,5145,11754,01.136,551
2022-07-12T05:12:55,42.805,6.029,CST-1368DR,4663,5145,11754,01.136,551
2022-07-12T05:15:56,42.805,6.029,CST-1368DR,4663,5145,11754,01.136,551
2022-07-12T05:18:58,42.805,6.029,CST-1368DR,4663,5176,11826,01.112,551
2022-07-12T05:22:00,42.805,6.029,CST-1368DR,4663,5158,11785,01.126,551
2022-07-12T05:25:01,42.805,6.029,CST-1368DR,4663,5138,11739,01.142,551
2022-07-12T05:28:03,42.805,6.029,CST-1368DR,4663,5138,11739,01.142,551
2022-07-12T05:31:04,42.805,6.029,CST-1368DR,4663,5139,11740,01.141,551
2022-07-12T05:34:06,42.805,6.029,CST-1368DR,4663,5147,11759,01.135,551
2022-07-12T05:37:07,42.805,6.029,CST-1368DR,4663,5142,11747,01.139,551
2022-07-12T05:40:09,42.805,6.029,CST-1368DR,4663,5145,11754,01.136,551
2022-07-12T05:43:11,42.805,6.029,CST-1368DR,4663,5148,11761,01.134,551
2022-07-12T05:46:12,42.805,6.029,CST-1368DR,4663,5150,11767,01.132,551
2022-07-12T05:49:14,42.805,6.029,CST-1368DR,4663,5145,11754,01.136,551
2022-07-12T05:52:15,42.805,6.029,CST-1368DR,4663,5143,11751,01.137,551
2022-07-12T05:55:17,42.805,6.029,CST-1368DR,4663,5147,11759,01.135,551
2022-07-12T05:58:19,42.805,6.029,CST-1368DR,4663,5144,11751,01.137,551
2022-07-12T06:01:20,42.805,6.029,CST-1368DR,4663,5140,11744,01.140,551
2022-07-12T06:04:22,42.805,6.029,CST-1368DR,4663,5144,11752,01.137,551
2022-07-12T06:07:23,42.805,6.029,CST-1368DR,4663,5143,11750,01.138,551
2022-07-12T06:10:25,42.805,6.029,CST-1368DR,4663,5144,11753,01.137,551
2022-07-12T06:13:26,42.805,6.029,CST-1368DR,4663,5139,11741,01.141,551
2022-07-12T06:16:28,42.805,6.029,CST-1368DR,4663,5143,11750,01.138,551
2022-07-12T06:19:30,42.805,6.029,CST-1368DR,4663,5140,11744,01.140,551
2022-07-12T06:22:31,42.805,6.029,CST-1368DR,4663,5135,11732,01.144,551
2022-07-12T06:25:33,42.805,6.029,CST-1368DR,4663,5140,11744,01.140,551
2022-07-12T06:28:34,42.805,6.029,CST-1368DR,4663,5137,11737,01.142,551
2022-07-12T06:31:36,42.805,6.029,CST-1368DR,4663,5141,11746,01.139,551
2022-07-12T06:34:37,42.805,6.029,CST-1368DR,4663,5141,11746,01.139,551
2022-07-12T06:37:39,42.805,6.029,CST-1368DR,4663,5138,11739,01.142,551
2022-07-12T06:40:41,42.805,6.029,CST-1368DR,4663,5145,11754,01.136,551
2022-07-12T06:43:42,42.805,6.029,CST-1368DR,4663,5141,11745,01.139,551
2022-07-12T06:46:44,42.805,6.029,CST-1368DR,4663,5147,11759,01.135,551
2022-07-12T06:49:45,42.805,6.029,CST-1368DR,4663,5148,11761,01.134,551
2022-07-12T06:52:47,42.805,6.029,CST-1368DR,4663,5148,11762,01.134,551
2022-07-12T06:55:49,42.805,6.029,CST-1368DR,4663,5144,11753,01.137,551
2022-07-12T06:58:50,42.805,6.029,CST-1368DR,4663,5147,11759,01.135,551
2022-07-12T07:01:52,42.805,6.029,CST-1368DR,4663,5147,11759,01.135,551
2022-07-12T07:04:53,42.805,6.029,CST-1368DR,4663,5149,11764,01.133,551
2022-07-12T07:07:55,42.805,6.029,CST-1368DR,4663,5148,11761,01.134,551
2022-07-12T07:10:56,42.805,6.029,CST-1368DR,4663,5176,11826,01.112,551
2022-07-12T07:13:58,42.805,6.029,CST-1368DR,4663,5148,11761,01.134,551
2022-07-12T07:17:00,42.805,6.029,CST-1368DR,4663,5158,11785,01.126,551
2022-07-12T07:20:01,42.805,6.029,CST-1368DR,4663,5151,11769,01.131,551
2022-07-12T07:23:03,42.805,6.029,CST-1368DR,4663,5158,11785,01.126,551
2022-07-12T07:26:04,42.805,6.029,CST-1368DR,4663,5166,11803,01.120,551
2022-07-12T07:29:06,42.805,6.029,CST-1368DR,4663,5167,11805,01.119,551
2022-07-12T07:32:08,42.805,6.029,CST-1368DR,4663,5161,11791,01.124,551
2022-07-12T07:35:09,42.805,6.029,CST-1368DR,4663,5162,11794,01.123,551
2022-07-12T07:38:11,42.805,6.029,CST-1368DR,4663,5160,11790,01.124,551
2022-07-12T07:41:12,42.805,6.029,CST-1368DR,4663,5164,11799,01.121,551
2022-07-12T07:44:14,42.805,6.029,CST-1368DR,4663,5153,11772,01.130,551
2022-07-12T07:47:15,42.805,6.029,CST-1368DR,4663,5153,11772,01.130,551
2022-07-12T07:50:17,42.805,6.029,CST-1368DR,4663,5166,11802,01.120,551
2022-07-12T07:53:19,42.805,6.029,CST-1368DR,4663,5160,11788,01.125,551
2022-07-12T07:56:20,42.805,6.029,CST-1368DR,4663,5156,11779,01.128,551
2022-07-12T07:59:22,42.805,6.029,CST-1368DR,4663,5163,11795,01.122,551
2022-07-12T08:02:23,42.805,6.029,CST-1368DR,4663,5171,11814,01.116,551
2022-07-12T08:05:25,42.805,6.029,CST-1368DR,4663,5165,11801,01.120,551
2022-07-12T08:08:26,42.805,6.029,CST-1368DR,4663,5158,11784,01.126,551
2022-07-12T08:11:28,42.805,6.029,CST-1368DR,4663,5169,11810,01.117,551
2022-07-12T08:14:30,42.805,6.029,CST-1368DR,4663,5159,11786,01.126,551
2022-07-12T08:17:31,42.805,6.029,CST-1368DR,4663,5169,11810,01.117,551
2022-07-12T08:20:33,42.805,6.029,CST-1368DR,4663,5157,11781,01.127,551
2022-07-12T08:23:34,42.805,6.029,CST-1368DR,4663,5159,11786,01.126,551
2022-07-12T08:26:36,42.805,6.029,CST-1368DR,4663,5156,11780,01.128,551
2022-07-12T08:29:38,42.805,6.029,CST-1368DR,4663,5166,11802,01.120,551
2022-07-12T08:32:39,42.805,6.029,CST-1368DR,4663,5158,11785,01.126,551
2022-07-12T08:35:41,42.805,6.029,CST-1368DR,4663,5164,11798,01.121,551
2022-07-12T08:38:42,42.805,6.029,CST-1368DR,4663,5165,11799,01.121,551
2022-07-12T08:41:44,42.805,6.029,CST-1368DR,4663,5165,11799,01.121,551
2022-07-12T08:44:45,42.805,6.029,CST-1368DR,4663,5164,11798,01.121,551
2022-07-12T08:47:47,42.805,6.029,CST-1368DR,4663,5158,11785,01.126,551
2022-07-12T08:50:49,42.805,6.029,CST-1368DR,4663,5157,11781,01.127,551
2022-07-12T08:53:50,42.805,6.029,CST-1368DR,4663,5162,11793,01.123,551
2022-07-12T08:56:52,42.805,6.029,CST-1368DR,4663,5155,11777,01.129,551
2022-07-12T08:59:53,42.805,6.029,CST-1368DR,4663,5153,11773,01.130,551
2022-07-12T09:02:55,42.805,6.029,CST-1368DR,4663,5157,11783,01.127,551
2022-07-12T09:05:57,42.805,6.029,CST-1368DR,4663,5153,11772,01.130,551
2022-07-12T09:08:58,42.805,6.029,CST-1368DR,4663,5145,11755,01.136,551
2022-07-12T09:12:00,42.805,6.029,CST-1368DR,4663,5155,11777,01.129,550
2022-07-12T09:15:01,42.805,6.029,CST-1368DR,4663,5151,11769,01.131,551
2022-07-12T09:18:03,42.805,6.029,CST-1368DR,4663,5151,11769,01.131,551
2022-07-12T09:21:04,42.805,6.029,CST-1368DR,4663,5154,11775,01.129,551
2022-07-12T09:24:06,42.805,6.029,CST-1368DR,4663,5157,11781,01.127,551
2022-07-12T09:27:08,42.805,6.029,CST-1368DR,4663,5158,11783,01.127,551
2022-07-12T09:30:09,42.805,6.029,CST-1368DR,4663,5157,11782,01.127,551
2022-07-12T09:33:11,42.805,6.029,CST-1368DR,4663,5154,11774,01.130,551
2022-07-12T09:36:12,42.805,6.029,CST-1368DR,4663,5169,11809,01.118,551
2022-07-12T09:39:14,42.805,6.029,CST-1368DR,4663,5152,11770,01.131,551
2022-07-12T09:42:15,42.805,6.029,CST-1368DR,4663,5164,11798,01.121,551
2022-07-12T09:45:17,42.805,6.029,CST-1368DR,4663,5163,11795,01.122,551
2022-07-12T09:48:19,42.805,6.029,CST-1368DR,4663,5155,11778,01.128,551
2022-07-12T09:51:20,42.805,6.029,CST-1368DR,4663,5152,11771,01.131,551
2022-07-12T09:54:22,42.805,6.029,CST-1368DR,4663,5167,11805,01.119,551
2022-07-12T09:57:23,42.805,6.029,CST-1368DR,4663,5161,11791,01.124,551
2022-07-12T10:00:25,42.805,6.029,CST-1368DR,4663,5174,11822,01.113,551
2022-07-12T10:03:27,42.805,6.029,CST-1368DR,4663,5171,11814,01.116,551
2022-07-12T10:06:28,42.805,6.029,CST-1368DR,4663,5152,11770,01.131,551
2022-07-12T10:09:30,42.805,6.029,CST-1368DR,4663,5155,11777,01.129,551
2022-07-12T10:12:31,42.805,6.029,CST-1368DR,4663,5151,11768,01.132,551
2022-07-12T10:15:33,42.805,6.029,CST-1368DR,4663,5150,11766,01.132,551
2022-07-12T10:18:34,42.805,6.029,CST-1368DR,4663,5147,11758,01.135,551
2022-07-12T10:21:36,42.805,6.029,CST-1368DR,4663,5157,11781,01.127,551
2022-07-12T10:24:38,42.805,6.029,CST-1368DR,4663,5152,11770,01.131,551
2022-07-12T10:27:39,42.805,6.029,CST-1368DR,4663,5161,11792,01.123,551
2022-07-12T10:30:41,42.805,6.029,CST-1368DR,4663,5157,11782,01.127,551
2022-07-12T10:33:42,42.805,6.029,CST-1368DR,4663,5157,11782,01.127,551
2022-07-12T10:36:44,42.805,6.029,CST-1368DR,4663,5151,11769,01.131,551
2022-07-12T10:39:45,42.805,6.029,CST-1368DR,4663,5159,11786,01.126,551
2022-07-12T10:42:47,42.805,6.029,CST-1368DR,4663,5156,11779,01.128,551
2022-07-12T10:45:49,42.805,6.029,CST-1368DR,4663,5148,11761,01.134,551
2022-07-12T10:48:50,42.805,6.029,CST-1368DR,4663,5156,11780,01.128,551
2022-07-12T10:51:52,42.805,6.029,CST-1368DR,4663,5152,11771,01.131,551
2022-07-12T10:54:53,42.805,6.029,CST-1368DR,4663,5155,11777,01.129,551
2022-07-12T10:57:55,42.805,6.029,CST-1368DR,4663,5151,11769,01.131,551
2022-07-12T11:00:57,42.805,6.029,CST-1368DR,4663,5156,11780,01.128,551
2022-07-12T11:03:58,42.805,6.029,CST-1368DR,4663,5166,11803,01.120,551
2022-07-12T11:07:00,42.805,6.029,CST-1368DR,4663,5163,11795,01.122,551
2022-07-12T11:10:01,42.805,6.029,CST-1368DR,4663,5169,11809,01.118,551
2022-07-12T11:13:03,42.805,6.029,CST-1368DR,4663,5162,11793,01.123,551
2022-07-12T11:16:04,42.805,6.029,CST-1368DR,4663,5156,11779,01.128,551
2022-07-12T11:19:06,42.805,6.029,CST-1368DR,4663,5153,11773,01.130,551
2022-07-12T11:22:08,42.805,6.029,CST-1368DR,4663,5154,11776,01.129,551
2022-07-12T11:25:09,42.805,6.029,CST-1368DR,4663,5152,11770,01.131,551
2022-07-12T11:28:11,42.805,6.029,CST-1368DR,4663,5163,11797,01.122,551
2022-07-12T11:31:12,42.805,6.029,CST-1368DR,4663,5174,11821,01.114,551
2022-07-12T11:34:14,42.805,6.029,CST-1368DR,4663,5155,11778,01.128,551
2022-07-12T11:37:15,42.805,6.029,CST-1368DR,4663,5148,11761,01.134,550
2022-07-12T11:40:17,42.805,6.029,CST-1368DR,4663,5156,11779,01.128,551
2022-07-12T11:43:19,42.805,6.029,CST-1368DR,4663,5156,11779,01.128,551
2022-07-12T11:46:20,42.805,6.029,CST-1368DR,4663,5156,11780,01.128,551
2022-07-12T11:49:22,42.805,6.029,CST-1368DR,4663,5158,11784,01.126,551
2022-07-12T11:52:23,42.805,6.029,CST-1368DR,4663,5150,11767,01.132,551
2022-07-12T11:55:25,42.805,6.029,CST-1368DR,4663,5153,11774,01.130,551
2022-07-12T11:58:27,42.805,6.029,CST-1368DR,4663,5149,11765,01.133,551
2022-07-12T12:01:28,42.805,6.029,CST-1368DR,4663,5151,11769,01.131,551
2022-07-12T12:04:30,42.805,6.029,CST-1368DR,4663,5157,11782,01.127,551
2022-07-12T12:07:31,42.805,6.029,CST-1368DR,4663,5152,11770,01.131,551
2022-07-12T12:10:33,42.805,6.029,CST-1368DR,4663,5147,11758,01.135,551
2022-07-12T12:13:34,42.805,6.029,CST-1368DR,4663,5153,11774,01.130,551
2022-07-12T12:16:36,42.805,6.029,CST-1368DR,4663,5154,11774,01.130,551
2022-07-12T12:19:38,42.805,6.029,CST-1368DR,4663,5161,11790,01.124,551
2022-07-12T12:22:39,42.805,6.029,CST-1368DR,4663,5147,11760,01.134,551
2022-07-12T12:25:41,42.805,6.029,CST-1368DR,4663,5144,11751,01.137,551
2022-07-12T12:28:42,42.805,6.029,CST-1368DR,4663,5148,11761,01.134,551
2022-07-12T12:31:44,42.805,6.029,CST-1368DR,4663,5150,11767,01.132,551
2022-07-12T12:34:45,42.805,6.029,CST-1368DR,4663,5148,11761,01.134,551
2022-07-12T12:37:47,42.805,6.029,CST-1368DR,4663,5149,11764,01.133,551
2022-07-12T12:40:49,42.805,6.029,CST-1368DR,4663,5142,11747,01.139,551
2022-07-12T12:43:50,42.805,6.029,CST-1368DR,4663,5142,11747,01.139,551
2022-07-12T12:46:52,42.805,6.029,CST-1368DR,4663,5149,11763,01.133,551
2022-07-12T12:49:53,42.805,6.029,CST-1368DR,4663,5143,11750,01.138,551
2022-07-12T12:52:55,42.805,6.029,CST-1368DR,4663,5138,11738,01.142,551
2022-07-12T12:55:57,42.805,6.029,CST-1368DR,4663,5140,11744,01.140,551
2022-07-12T12:58:58,42.805,6.029,CST-1368DR,4663,5142,11748,01.138,551
2022-07-12T13:02:00,42.805,6.029,CST-1368DR,4663,5142,11747,01.139,551
2022-07-12T13:05:01,42.805,6.029,CST-1368DR,4663,5145,11755,01.136,551
2022-07-12T13:08:03,42.805,6.029,CST-1368DR,4663,5143,11749,01.138,551
2022-07-12T13:11:04,42.805,6.029,CST-1368DR,4663,5137,11735,01.143,551
2022-07-12T13:14:06,42.805,6.029,CST-1368DR,4663,5142,11747,01.139,551
2022-07-12T13:17:08,42.805,6.029,CST-1368DR,4663,5146,11756,01.136,551
2022-07-12T13:20:09,42.805,6.029,CST-1368DR,4663,5157,11783,01.127,551
2022-07-12T13:23:11,42.805,6.029,CST-1368DR,4663,5148,11761,01.134,551
2022-07-12T13:26:12,42.805,6.029,CST-1368DR,4663,5140,11744,01.140,551
2022-07-12T13:29:14,42.805,6.029,CST-1368DR,4663,5142,11748,01.138,551
2022-07-12T13:32:15,42.805,6.029,CST-1368DR,4663,5147,11760,01.134,551
2022-07-12T13:35:17,42.805,6.029,CST-1368DR,4663,5140,11743,01.140,551
2022-07-12T13:38:19,42.805,6.029,CST-1368DR,4663,5141,11745,01.139,551
2022-07-12T13:41:20,42.805,6.029,CST-1368DR,4663,5147,11758,01.135,551
2022-07-12T13:44:22,42.805,6.029,CST-1368DR,4663,5150,11766,01.132,551
2022-07-12T13:47:23,42.805,6.029,CST-1368DR,4663,5147,11759,01.135,551
2022-07-12T13:50:25,42.805,6.029,CST-1368DR,4663,5150,11766,01.132,551
2022-07-12T13:53:27,42.805,6.029,CST-1368DR,4663,5144,11753,01.137,551
2022-07-12T13:56:28,42.805,6.029,CST-1368DR,4663,5144,11752,01.137,551
2022-07-12T13:59:30,42.805,6.029,CST-1368DR,4663,5152,11771,01.131,551
2022-07-12T14:02:31,42.805,6.029,CST-1368DR,4663,5149,11764,01.133,551
2022-07-12T14:05:33,42.805,6.029,CST-1368DR,4663,5147,11759,01.135,551
2022-07-12T14:08:34,42.805,6.029,CST-1368DR,4663,5154,11776,01.129,551
2022-07-12T14:11:36,42.805,6.029,CST-1368DR,4663,5144,11752,01.137,551
2022-07-12T14:14:38,42.805,6.029,CST-1368DR,4663,5146,11756,01.136,551
2022-07-12T14:17:39,42.805,6.029,CST-1368DR,4663,5142,11747,01.139,551
2022-07-12T14:20:41,42.805,6.029,CST-1368DR,4663,5144,11753,01.137,551
2022-07-12T14:23:42,42.805,6.029,CST-1368DR,4663,5145,11754,01.136,551
2022-07-12T14:26:44,42.805,6.029,CST-1368DR,4663,5139,11740,01.141,551
2022-07-12T14:29:46,42.805,6.029,CST-1368DR,4663,5134,11730,01.145,551
2022-07-12T14:32:47,42.805,6.029,CST-1368DR,4663,5151,11768,01.132,551
2022-07-12T14:35:49,42.805,6.029,CST-1368DR,4662,5134,11731,01.144,551
2022-07-12T14:38:50,42.805,6.029,CST-1368DR,4663,5134,11730,01.145,551
2022-07-12T14:41:52,42.805,6.029,CST-1368DR,4663,5138,11738,01.142,551
2022-07-12T14:44:53,42.805,6.029,CST-1368DR,4662,5136,11736,01.143,551
2022-07-12T14:47:55,42.805,6.029,CST-1368DR,4663,5130,11720,01.148,551
2022-07-12T14:50:57,42.805,6.029,CST-1368DR,4663,5135,11732,01.144,551
2022-07-12T14:53:58,42.805,6.029,CST-1368DR,4663,5136,11734,01.143,551
2022-07-12T14:57:00,42.805,6.029,CST-1368DR,4663,5145,11754,01.136,551
2022-07-12T15:00:01,42.805,6.029,CST-1368DR,4663,5147,11758,01.135,551
2022-07-12T15:03:03,42.805,6.029,CST-1368DR,4663,5141,11746,01.139,551
2022-07-12T15:06:04,42.805,6.029,CST-1368DR,4663,5138,11739,01.142,551
2022-07-12T15:09:06,42.805,6.029,CST-1368DR,4663,5138,11739,01.142,551
2022-07-12T15:12:08,42.805,6.029,CST-1368DR,4663,5149,11765,01.133,551
2022-07-12T15:15:09,42.805,6.029,CST-1368DR,4663,5139,11741,01.141,551
2022-07-12T15:18:11,42.805,6.029,CST-1368DR,4663,5144,11753,01.137,551
2022-07-12T15:21:12,42.805,6.029,CST-1368DR,4663,5135,11732,01.144,551
2022-07-12T15:24:14,42.805,6.029,CST-1368DR,4663,5141,11746,01.139,551
2022-07-12T15:27:16,42.805,6.029,CST-1368DR,4662,5144,11754,01.136,551
2022-07-12T15:30:17,42.805,6.029,CST-1368DR,4663,5149,11764,01.133,551
2022-07-12T15:33:19,42.805,6.029,CST-1368DR,4663,5152,11770,01.131,551
2022-07-12T15:36:20,42.805,6.029,CST-1368DR,4663,5146,11756,01.136,551
2022-07-12T15:39:22,42.805,6.029,CST-1368DR,4663,5149,11763,01.133,551
2022-07-12T15:42:23,42.805,6.029,CST-1368DR,4663,5152,11771,01.131,551
2022-07-12T15:45:25,42.805,6.029,CST-1368DR,4663,5147,11760,01.134,551
2022-07-12T15:48:27,42.805,6.029,CST-1368DR,4663,5145,11754,01.136,551
2022-07-12T15:51:28,42.805,6.029,CST-1368DR,4663,5146,11757,01.135,551
2022-07-12T15:54:30,42.805,6.029,CST-1368DR,4662,5146,11758,01.135,551
2022-07-12T15:57:31,42.805,6.029,CST-1368DR,4663,5146,11757,01.135,551
2022-07-12T16:00:33,42.805,6.029,CST-1368DR,4663,5145,11754,01.136,551
2022-07-12T16:03:34,42.805,6.029,CST-1368DR,4663,5149,11764,01.133,550
2022-07-12T16:06:36,42.805,6.029,CST-1368DR,4663,5148,11761,01.134,551
2022-07-12T16:09:38,42.805,6.029,CST-1368DR,4662,5146,11759,01.135,551
2022-07-12T16:12:39,42.805,6.029,CST-1368DR,4663,5143,11751,01.137,551
2022-07-12T16:15:41,42.805,6.029,CST-1368DR,4663,5148,11762,01.134,551
2022-07-12T16:18:42,42.805,6.029,CST-1368DR,4662,5138,11741,01.141,551
2022-07-12T16:21:44,42.805,6.029,CST-1368DR,4662,5145,11756,01.136,551
2022-07-12T16:24:46,42.805,6.029,CST-1368DR,4662,5145,11757,01.135,551
2022-07-12T16:27:47,42.805,6.029,CST-1368DR,4662,5138,11741,01.141,551
2022-07-12T16:30:49,42.805,6.029,CST-1368DR,4662,5142,11749,01.138,551
2022-07-12T16:33:50,42.805,6.029,CST-1368DR,4662,5135,11734,01.143,551
2022-07-12T16:36:52,42.805,6.029,CST-1368DR,4663,5143,11750,01.138,551